Location: Unspecified
(40.7945°N, 0.0000°E)
Time: 06:23:22
(UTC+00:00)

Tiros 1 despin weight - Pass Details

Date: 22 January 2021
Orbit: 593 x 642 km, 48.2° (Epoch: 06 March)

Event Time Altitude Azimuth Distance (km) Brightness Sun altitude
Rises 18:02:52 0° 289° (WNW) 2,860 ? -11.0°
Reaches altitude 10° 18:05:23 10° 300° (WNW) 1,948 ? -11.4°
Maximum altitude 18:09:23 31° 4° (N) 1,051 ? -12.2°
Enters shadow 18:12:00 18° 56° (NE) 1,498 ? -12.6°
